+ View the NASA Portal
+ Center for Near-Earth Object Studies
JPL Small-Body Database Browser
Search:
[
help
]
1375 Alfreda (1935 UB)
Classification:
Main-belt Asteroid
SPK-ID:
2001375
[
Ephemeris
|
Orbit Diagram
|
Orbital Elements
|
Mission Design
|
Physical Parameters
|
Discovery Circumstances
|
Close-Approach Data
]
[ show orbit diagram ]
Orbital Elements at Epoch 2459200.5 (2020-Dec-17.0) TDB
Reference:
JPL 44
(heliocentric ecliptic J2000)
Element
Value
Uncertainty (1-sigma)
Units
e
.07123348768714341
2.9483e-08
a
2.447582402795069
6.9161e-09
au
q
2.273232571842297
7.3091e-08
au
i
5.819252658034546
3.5651e-06
deg
node
52.75805253173157
3.8446e-05
deg
peri
32.7034621051419
4.9938e-05
deg
M
47.49459732723464
3.0993e-05
deg
t
p
2459015.978864183528
(2020-Jun-15.47886418)
0.00012042
TDB
period
1398.635058136152
3.83
5.9282e-06
1.623e-08
d
yr
n
.2573938054146468
1.091e-09
deg/d
Q
2.62193223374784
7.4088e-09
au
Orbit Determination Parameters
# obs. used (total)
2897
data-arc span
32609 days (89.28 yr)
first obs. used
1931-10-12
last obs. used
2021-01-21
planetary ephem.
DE431
SB-pert. ephem.
SB431-N16
condition code
0
norm. resid. RMS
.40571
source
ORB
producer
Otto Matic
solution date
2021-Feb-24 00:54:49
Additional Information
Earth MOID
= 1.29115 au
Jupiter MOID
= 2.51877 au
T_jup
= 3.487
[ hide covariance matrix ]
Orbital Elements at Epoch 2456852.5 (2014-Jul-14.0) TDB
Reference:
JPL 44
(heliocentric ecliptic J2000)
Element
Value
Uncertainty (1-sigma)
Units
e
.07023412374279918
2.9361e-08
q
2.275531661705661
7.2669e-08
au
t
p
2456215.842624271735
(2012-Oct-15.34262427)
0.00012366
TDB
node
52.78879011727465
3.8445e-05
deg
peri
31.96930296275248
5.0338e-05
deg
i
5.820162430609469
3.5654e-06
deg
Orbit Determination Parameters
# obs. used (total)
2897
data-arc span
32609 days (89.28 yr)
first obs. used
1931-10-12
last obs. used
2021-01-21
planetary ephem.
DE431
SB-pert. ephem.
SB431-N16
condition code
0
norm. resid. RMS
.40571
source
ORB
producer
Otto Matic
solution date
2021-Feb-24 00:54:49
Additional Information
Jupiter MOID
= 2.51877 au
T_jup
= 3.487
Orbit Covariance (6×6)
e
q
tp
node
peri
i
e
8.620576672317823E-16
-2.125388361616447E-15
5.234978098010386E-14
7.931362531542985E-16
5.381909228521562E-15
-9.132618904929882E-16
q
-2.125388361616447E-15
5.280722302388541E-15
-2.108887538108917E-13
-2.264409219551715E-15
-3.187189728785527E-14
2.351687712142689E-15
tp
5.234978098010386E-14
-2.108887538108917E-13
1.529261839445616E-8
3.049311670943944E-11
4.03398775939003E-9
-3.377692267611401E-12
node
7.931362531542985E-16
-2.264409219551715E-15
3.049311670943944E-11
1.478006962815708E-9
-1.462081660099898E-9
-2.575785827790283E-11
peri
5.381909228521562E-15
-3.187189728785527E-14
4.03398775939003E-9
-1.462081660099898E-9
2.533959009076142E-9
2.475124768697888E-11
i
-9.132618904929882E-16
2.351687712142689E-15
-3.377692267611401E-12
-2.575785827790283E-11
2.475124768697888E-11
1.271197044844304E-11
[
Ephemeris
|
Orbit Diagram
|
Orbital Elements
|
Mission Design
|
Physical Parameters
|
Discovery Circumstances
|
Close-Approach Data
]
Physical Parameter Table
Parameter
Symbol
Value
Units
Sigma
Reference
Notes
absolute magnitude
H
11.52
n/a
E2021B10
diameter
diameter
13.928
km
0.174
urn:nasa:pds:neowise_diameters_albedos::2.0[mainbelt] (http://adsabs.harvard.edu/abs/2014ApJ...791..121M)
rotation period
rot_per
19.14
h
n/a
LCDB (Rev. 2020-October); Warner et al., 2009
Published Reference List:
[Pligge, Z.; Monnier, A.; Pharo, J.; Stolze, K.; Yim, A.; Ditteon, R. (2011) Minor Planet Bull. 38, 5-7.]
geometric albedo
albedo
0.204
0.021
urn:nasa:pds:neowise_diameters_albedos::2.0[mainbelt] (http://adsabs.harvard.edu/abs/2014ApJ...791..121M)
1375 Alfreda (1935 UB)
Discovered 1935-Oct-22 by Delporte, E. at Uccle
Reference:
DISCOVERY.DB
Last Updated:
2003-08-29
[ show close-approach data ]
Alternate Designations
1935 UB
= 1931 TV3 = 1933 FC = A916 WK
[
Ephemeris
|
Orbit Diagram
|
Orbital Elements
|
Mission Design
|
Physical Parameters
|
Discovery Circumstances
|
Close-Approach Data
]
2021-Mar-03 12:31 UT
(server date/time)
Site Manager:
Ryan S. Park
Webmaster
:
Alan B. Chamberlin